Regional Weather Roundup
Issued by NWS Wakefield, VA

Home | Current Version | Previous Version | Text Only | Print | Product List | Glossary Off
Versions: 1 2 3 4 5 6 7 8 9 10 11 12 13 14 15 16 17 18 19 20 21 22 23 24 25 26 27 28 29 30 31 32 33 34 35 36 37 38 39 40 41 42 43 44 45 46 47 48 49

000
ASUS41 KAKQ 060210
RWRAKQ

REGIONAL WEATHER ROUNDUP
NATIONAL WEATHER SERVICE WAKEFIELD VA
900 PM EST THU MAR 05 2015

Note: "fair" indicates few or no clouds below 12,000 feet with no
significant weather and/or obstructions to visibility. * = Denotes
station may not report precipitation (e.g., rain,snow,etc.),
thunder or fog.

VAZ042-051-052>054-056-060300-
NORTHERN VIRGINIA

CITY           SKY/WX    TMP DP  RH WIND       PRES   REMARKS
WASH NATIONAL  FLURRIES  27  16  63 NW15      30.40R WCI  15
DULLES         FLURRIES  23  13  65 NW10      30.39R WCI  12
FORT BELVOIR   MIX PCPN  25  17  71 NW12      30.40R WCI  14
QUANTICO       CLOUDY    26  18  71 NE12      30.40R WCI  16
FREDERICKSBRG* CLOUDY    27  23  84 NW9       30.38R
STAFFORD*      CLOUDY    24  20  85 CALM      30.42R
WARRENTON      CLOUDY    25  20  81 N16       30.38R WCI  12
CULPEPER*      CLOUDY    25  18  74 N10       30.39R WCI  15
MANASSAS*      CLOUDY    25  16  68 N9G18     30.40
LEESBURG*      CLOUDY    25  18  74 N8        30.40R
WINCHESTER     CLOUDY    23   9  54 N9        30.38R
FRONT ROYAL*   CLOUDY    21  14  73 CALM      30.37R
LURAY*         CLOUDY    27  18  69 N9        30.35R
$$

VAZ048-049-060>072-079>083-060300-
CENTRAL AND SOUTH CENTRAL VIRGINIA

CITY           SKY/WX    TMP DP  RH WIND       PRES   REMARKS
RICHMOND       CLOUDY    27  21  78 N14       30.35R WCI  16
CHESTERFIELD*  CLOUDY    27  14  59 N10       30.36R WCI  17
PETERSBURG*    CLOUDY    29  26  89 N10G17    30.36R WCI  20
HANOVER        LGT SNOW  25  22  88 N9        30.38R FOG
TAPPAHANNOCK*  CLOUDY    27  23  83 NW12      30.36R WCI  17
QUINTON*       CLOUDY    27  24  88 N8G17     30.35R
CHARLOTTSVILLE CLOUDY    25  21  85 CALM      30.34R
GORDONSVILLE*  CLOUDY    24  20  85 NE6       30.35R
ORANGE*        CLOUDY    27  21  80 N9        30.38R
LOUISA*        CLOUDY    25  21  86 N7        30.34R
BUMPASS*       CLOUDY    25  20  82 N5        30.36R
FARMVILLE*     CLOUDY    29  29 100 N5          N/A
CREWE*         CLOUDY    28  24  86 N3        30.35R
FORT PICKETT*  CLOUDY    27  25  93 N8        30.35R
CHASE CITY*    CLOUDY    31  29  94 N5        30.34R
CLARKSVILLE*   CLOUDY    30  28  93 N5        30.34R
SOUTH HILL*    CLOUDY    29  26  89 N12       30.39R WCI  19
LAWRENCEVILLE* CLOUDY    29  27  92 N9G16     30.34R
EMPORIA*       CLOUDY    30  28  93 NW14      30.35R WCI  20
$$

VAZ088>098-060300-
SOUTHEAST VIRGINIA

CITY           SKY/WX    TMP DP  RH WIND       PRES   REMARKS
NORFOLK        LGT SNOW  30  26  85 N20G33    30.28R FOG     WCI  17
VIRGINIA BEACH LGTSLEET  32  28  85 N21G30    30.28R WCI  20
NORFOLK NAVAL  LGTSLEET  32  27  81 N23G29    30.31R WCI  19
WEST POINT*    CLOUDY    31  26  84 NW7       30.36R
SALUDA*        CLOUDY    27  23  85 N12G23    30.34R WCI  17
NEWPORT NEWS   MIX PCPN  32  26  78 N16G25    30.31R WCI  21
LANGLEY AFB    LGT SNOW  30  27  86 N21G26    30.30R FOG     WCI  17
FORT EUSTIS    DRIZZLE   30  30 100 NE14      30.30R WCI  20
WILLIAMSBURG*  CLOUDY    30  30 100 N9G21     30.32R
HR EXEC AP*    CLOUDY    30  28  93 N14G21    30.31R WCI  20
FRANKLIN*      MIX PCPN  30  28  90 N9G20     30.31R
WAKEFIELD      CLOUDY    30  26  85 N9G17     30.32R
$$

VAZ020-022-025-037-045-060300-
WEST CENTRAL AND SOUTHWEST VIRGINIA

CITY           SKY/WX    TMP DP  RH WIND       PRES   REMARKS
STAUNTON*      CLOUDY    24  19  83 NE8       30.34R
WAYNESBORO*    CLOUDY    21  18  88 N7        30.31R
HOT SPRINGS VA CLOUDY    14  13  98 NW3       30.12R
LYNCHBURG      LGT SNOW  28  27  96 NE7       30.33R FOG
DANVILLE       CLOUDY    32  26  78 NE12      30.33R WCI  23
SOUTH BOSTON*  CLOUDY    30  27  87 N6        30.35R
MARTINSVILLE   CLOUDY    31  24  76 N12       30.33S WCI  22
ROANOKE        CLOUDY    27  17  66 N8        30.34R
BLACKSBURG     FLURRIES  21  15  78 W9        30.30R
DUBLIN*        FLURRIES  24  19  83 N5        30.30R
MARION*        CLOUDY    22  17  81 W13       30.30R WCI  10
HILLSVILLE*    CLOUDY    22  18  85 NW10G18   30.22R WCI  11
RICHLANDS*     FLURRIES  17  13  84 N8        30.31R
WISE*          FLURRIES  18  18 100 N7        30.34R
ABINGDON*      MOCLDY    22  18  84 N6        30.34R
$$

MDZ021>025-VAZ099-100-060300-
SOUTHERN MARYLAND AND THE DELMARVA PENINSULA

CITY           SKY/WX    TMP DP  RH WIND       PRES   REMARKS
PATUXENT RIVER LGT SNOW  24  19  81 N16G25    30.37R WCI  11
BAY BRIDGE APT   N/A     25  14  63 N10G17    30.38R WCI  15
LEONARDTOWN    CLOUDY    27  21  80 CALM      30.38R
DOVER          FLURRIES  22  17  83 NW10      30.35R WCI  11
GEORGETOWN     CLOUDY    22  17  81 N9        30.33R
EASTON         MOCLDY    25  25 100 N8        30.39R
CAMBRIDGE      CLOUDY    27  21  80 N13       30.36R WCI  16
SALISBURY      CLOUDY    25  18  74 N13G22    30.33R WCI  14
OCEAN CITY     CLOUDY    23  20  88 N16       30.29R WCI  10
WALLOPS ISLAND CLOUDY    24  21  88 N16G25    30.27F WCI  11
ACCOMACK*      LGT SNOW  27  23  86 N16G28    30.27F WCI  14
$$

NCZ012>017-030>032-060300-
NORTH CENTRAL AND EASTERN NORTH CAROLINA

CITY           SKY/WX    TMP DP  RH WIND       PRES   REMARKS
ROANOKE RAPIDS CLOUDY    32  30  93 N14       30.32R WCI  22
RALEIGH        CLOUDY    33  28  81 NE14      30.29R WCI  23
ELIZABETH CITY RAIN      33  31  92 N24       30.24R WCI  20
AHOSKIE*       LGT RAIN  31  28  88 N10G18    30.32R WCI  23
EDENTON*       LGT RAIN  34  32  94 N15       30.25R WCI  24
CURRITUCK*     LGT SNOW  33  32  94 N18G24    30.21R WCI  22
KILL DEVIL HLS LGT SNOW  33  33 100 N13G29    30.19R WCI  24
MANTEO         LGT RAIN  34  33  95 N22G32    30.21R WCI  22
CAPE HATTERAS  LGT RAIN  39  38  96 N12G29    30.16R
TARBORO*       CLOUDY    33  31  92 N9G21     30.30R
GOLDSBORO      LGT RAIN  35  35  99 N14G21    30.25R
WASHINGTON     RAIN      35  33  92 N12G20    30.23R
GREENVILLE     RAIN      34  34 100 N13       30.26R WCI  25
NEW BERN       RAIN      38  35  89 NE14G28   30.22R
WILMINGTON     LGT RAIN  41  39  93 N13       30.16F
$$

VAZ048-060300-
ELSEWHERE

CITY           SKY/WX    TMP DP  RH WIND       PRES   REMARKS
HARRISBURG PA  CLOUDY    21  14  74 W5        30.37R
BALTIMORE      NOT AVBL
ANNAPOLIS      CLOUDY    24  17  74 N9        30.38R
ANDREWS AFB    FLURRIES  23  16  74 NW13      30.36R WCI  11
PHILADELPHIA   CLOUDY    22  12  65 NW9       30.37R
HENDERSON NC   CLOUDY    31  28  88 CALM      30.32R
GREENSBORO     LGT SNOW  32  30  92 N7        30.26S FOG
ROCKY MOUNT    MIX PCPN  33  30  88 N21G29    30.32R WCI  21
$$

VAZ100-060300-
MARINE

STATION/POSITION TIME  TEMP    WIND        PRES    WAVE   SWELL
                       AIR SEA DIR/SP/G            HT/PER HT/PER
                 (UTC) (F)     (DEG/KT/KT) (MB)    (FT/S) (FT/S)
BRANDYWINE LGT   0200          360/ 26/ 31   N/A
CAPE MAY NJ      0200   21 34  340/ 17/ 25 1026.9R
LEWES DE         0200   25 31  350/ 20/ 22 1027.1F
15NM E FENWICK I 0200   26 35              1024.5R   6/ 6
OCEAN-CITY-INLET 0200   25 33  360/ 19/ 23 1025.9R
WACHAPREAGUE VA  0200   26 38  350/ 10/ 21 1025.2R
THOMAS POINT MD  0200          140/ 13/ 15   N/A
COVE POINT MD    0200   22      10/ 14/ 19 1027.8R
SOLOMONS ISLAND  0200      33                N/A
BISHOPS HEAD MD  0200   24 30  360/  8/ 15 1026.9R
CAMBRIDGE MD     0200   24 32  360/ 12/ 15 1027.8S
LEWISETTA VA     0200   25 33   10/ 11/ 14 1027.8R
RAPPAHANNOCK LGT 0200          350/ 31/ 34 1027.0R
STINGRAY PT      0200   28      10/ 21/ 27   N/A
YORK RVR RNG VA  0200   29     360/ 22/ 25 1026.0R
YORKTOWN VA      0200   30 35  340/ 14/ 19 1025.6R
DOMINION TERM VA 0200   31     360/ 15/ 22 1025.9R
KIPTOPEKE VA     0200      39   20/ 16/ 23   N/A
CHES BAY BRIDGE  0200   29 34  350/ 27/ 33 1024.4F
CAPE HENRY VA    0200   29     350/ 29/ 31 1023.2R
CHESAPEAKE LGHT  0100   33      10/ 24/ 26 1023.5R
WILLOUBY STN VA  0200   30     360/ 20/ 25 1025.0F
S CRANEY ISL VA  0200           10/ 18/ 22 1024.8R
CAPE HENRY BUOY  0200      35                N/A     7/ 8   2/11
1ST LANDING BUOY 0200   30                 1024.1R
OFFSHORE WE BUOY 0200      36                N/A     9/ 8   5/ 8
64NM E OF VA BCH 0200   40 53   10/ 29/ 37 1019.5R  10/ 8   3/16
DUCK PIER NC     0200   33 36   10/ 29/ 35 1021.2R
44100 DUCK FRF   0100      38                N/A     9/ 8   2/11
44056 DUCK FRF   0200      35                N/A     8/ 8   2/11
OREGON INLET NC  0200   35 46  340/ 19/ 26 1021.9R
HATTERAS NC      0200      51  360/ 27/ 31 1021.4R
CAPE LOOKOUT NC  0100           50/ 22/ 25 1018.8F
$$


USA.gov is the U.S. government's official web portal to all federal, state and local government web resources and services.